Home   Weather   Lansing   Past weeks

Flag for USA Past Weather in Lansing, Michigan, USA — Yesterday and Last 2 Weeks

Now
67 °F

Clear.


Feels Like: 67 °F
Forecast: 60 / 85 °F
Wind: 8 mph from South

Location: Capital City Airport

Current Time: Jul 26, 2017 at 12:55:59 am

Latest Report: Jul 25, 2017 at 11:53 pm


Visibility: 10 mi

Pressure: 30.18 "Hg

Humidity: 63%

Dew Point: 54 °F

Location of LansingLocation

Past Weather in Lansing — Graph

°F

Lansing Temperature Yesterday

Maximum temperature yesterday: 80 °F (at 3:53 pm)
Minimum temperature yesterday: 52 °F (at 5:53 am)
Average temperature yesterday: 68 °F

High & Low Weather Summary for the Past Weeks

 TemperatureHumidityPressure
High89 °F (Jul 11, 4:53 pm)93% (Jul 21, 6:02 am)30.25 "Hg (Jul 21, 6:02 am)
Low52 °F (Jul 25, 5:53 am)35% (Jul 25, 3:53 pm)29.74 "Hg (Jul 23, 5:53 pm)
Average74 °F71%29.97 "Hg
* Reported Jul 10 10:53 pm — Jul 25 10:53 pm, Lansing. Weather by CustomWeather, © 2017

Note: Actual official high and low records may vary slightly from our data, if they occured in-between our weather recording intervals... More about our weather records

Advertising

Lansing Weather History for the Previous 24 Hours

Scroll right to see more
 ConditionsComfort  
Time TempWeatherWind HumidityBarometerVisibility
10:53 pm
Tue, Jul 25
68 °FClear.5 mph59%30.16 "Hg10 mi
9:53 pm70 °FClear.7 mph53%30.16 "Hg10 mi
8:53 pm71 °FSunny.6 mph51%30.17 "Hg10 mi
7:53 pm75 °FSunny.7 mph47%30.17 "Hg10 mi
6:53 pm77 °FSunny.7 mph44%30.20 "Hg10 mi
5:53 pm78 °FSunny.7 mph42%30.20 "Hg10 mi
4:53 pm80 °FSunny.6 mph38%30.21 "Hg10 mi
3:53 pm80 °FSunny.No wind35%30.22 "Hg10 mi
2:53 pm78 °FSunny.6 mph37%30.23 "Hg10 mi
1:53 pm78 °FSunny.No wind39%30.22 "Hg10 mi
12:53 pm76 °FSunny.8 mph42%30.22 "Hg10 mi
11:53 am75 °FSunny.No wind42%30.24 "Hg10 mi
10:53 am72 °FSunny.6 mph44%30.25 "Hg10 mi
9:53 am69 °FSunny.5 mph49%30.24 "Hg10 mi
8:53 am66 °FSunny.No wind70%30.23 "Hg10 mi
7:53 am60 °FSunny.No wind83%30.22 "Hg10 mi
6:53 am53 °FSunny.No wind93%30.21 "Hg10 mi
5:53 am52 °FClear.No wind93%30.19 "Hg9 mi
4:53 am54 °FClear.No wind90%30.18 "Hg10 mi
3:53 am56 °FClear.No wind87%30.16 "Hg10 mi
2:53 am56 °FClear.No wind90%30.16 "Hg10 mi
1:53 am59 °FClear.No wind81%30.15 "Hg10 mi
12:53 am61 °FClear.No wind75%30.14 "Hg10 mi
Weather by CustomWeather, © 2017

See weather overviewHow to use our weather pages